| time (UTC) | temp F | wind direction | speed MPH | gust MPH | rain 1hr in | rain 24hr in | rain mn in | humidity % | barometer mb |
| 20260831122523 | 71 | 177 | 2.0 | 6.0 | 0.00 | 0.00 | 0.00 | 67 | 1016.1 |
| 20260831121538 | 71 | 169 | 2.0 | 4.0 | 0.00 | 0.00 | 0.00 | 67 | 1016.0 |
| 20260831120528 | 71 | 170 | 1.0 | 4.0 | 0.00 | 0.00 | 0.00 | 67 | 1015.9 |
| 20260831115543 | 71 | 158 | 2.0 | 4.0 | 0.00 | 0.00 | 0.00 | 66 | 1015.9 |
| 20260831114518 | 71 | 150 | 2.0 | 7.0 | 0.00 | 0.00 | 0.00 | 66 | 1015.7 |
| 20260831113528 | 72 | 154 | 2.0 | 6.0 | 0.00 | 0.00 | 0.00 | 65 | 1015.6 |
| 20260831112523 | 72 | 156 | 2.0 | 4.0 | 0.00 | 0.00 | 0.00 | 65 | 1015.4 |
| 20260831111523 | 72 | 151 | 1.0 | 4.0 | 0.00 | 0.00 | 0.00 | 63 | 1015.4 |
| 20260831110518 | 72 | 147 | 1.0 | 3.0 | 0.00 | 0.00 | 0.00 | 63 | 1015.4 |
| 20260831105528 | 72 | 151 | 1.0 | 3.0 | 0.00 | 0.00 | 0.00 | 62 | 1015.4 |
| 20260831104544 | 72 | 153 | 1.0 | 3.0 | 0.00 | 0.00 | 0.00 | 62 | 1015.4 |
| 20260831103540 | 72 | 162 | 0.0 | 2.0 | 0.00 | 0.00 | 0.00 | 61 | 1015.3 |
| 20260831102516 | 73 | 167 | 2.0 | 6.0 | 0.00 | 0.00 | 0.00 | 60 | 1015.3 |
| 20260831101547 | 73 | 165 | 2.0 | 4.0 | 0.00 | 0.00 | 0.00 | 60 | 1015.4 |
| 20260831100522 | 73 | 173 | 2.0 | 6.0 | 0.00 | 0.00 | 0.00 | 59 | 1015.3 |
| 20260831095518 | 73 | 168 | 2.0 | 4.0 | 0.00 | 0.00 | 0.00 | 58 | 1015.3 |
| 20260831094528 | 73 | 173 | 2.0 | 6.0 | 0.00 | 0.00 | 0.00 | 58 | 1015.2 |
| 20260831093524 | 73 | 166 | 1.0 | 3.0 | 0.00 | 0.00 | 0.00 | 57 | 1015.3 |
| 20260831092519 | 74 | 158 | 2.0 | 6.0 | 0.00 | 0.00 | 0.00 | 57 | 1015.2 |
| 20260831091515 | 74 | 158 | 2.0 | 4.0 | 0.00 | 0.00 | 0.00 | 56 | 1015.1 |
| 20260831090526 | 74 | 164 | 3.0 | 6.0 | 0.00 | 0.00 | 0.00 | 55 | 1015.0 |
| 20260831085542 | 74 | 179 | 3.0 | 9.0 | 0.00 | 0.00 | 0.00 | 55 | 1014.9 |
| 20260831084517 | 74 | 170 | 3.0 | 9.0 | 0.00 | 0.00 | 0.00 | 54 | 1015.0 |
| 20260831083528 | 74 | 161 | 3.0 | 8.0 | 0.00 | 0.00 | 0.00 | 53 | 1014.9 |
| 20260831082523 | 75 | 167 | 3.0 | 7.0 | 0.00 | 0.00 | 0.00 | 52 | 1014.8 |
| 20260831081519 | 75 | 183 | 3.0 | 8.0 | 0.00 | 0.00 | 0.00 | 51 | 1014.8 |
| 20260831080530 | 75 | 168 | 2.0 | 4.0 | 0.00 | 0.00 | 0.00 | 50 | 1014.8 |
| 20260831075525 | 75 | 171 | 1.0 | 3.0 | 0.00 | 0.00 | 0.00 | 50 | 1014.9 |
| 20260831074541 | 75 | 171 | 2.0 | 6.0 | 0.00 | 0.00 | 0.00 | 49 | 1014.9 |
| 20260831073516 | 75 | 174 | 2.0 | 6.0 | 0.00 | 0.00 | 0.00 | 49 | 1014.8 |
| 20260831072527 | 76 | 180 | 2.0 | 8.0 | 0.00 | 0.00 | 0.00 | 48 | 1014.8 |
| 20260831071523 | 76 | 166 | 2.0 | 4.0 | 0.00 | 0.00 | 0.00 | 48 | 1014.8 |
| 20260831070519 | 76 | 167 | 2.0 | 8.0 | 0.00 | 0.00 | 0.00 | 47 | 1015.0 |
| 20260831065529 | 77 | 168 | 2.0 | 7.0 | 0.00 | 0.00 | 0.00 | 46 | 1014.9 |
| 20260831064525 | 77 | 160 | 2.0 | 7.0 | 0.00 | 0.00 | 0.00 | 46 | 1014.9 |
| 20260831063521 | 77 | 173 | 2.0 | 4.0 | 0.00 | 0.00 | 0.00 | 45 | 1014.9 |
| 20260831062537 | 78 | 170 | 2.0 | 7.0 | 0.00 | 0.00 | 0.00 | 44 | 1014.9 |
| 20260831061527 | 78 | 169 | 2.0 | 7.0 | 0.00 | 0.00 | 0.00 | 44 | 1014.8 |
| 20260831060523 | 78 | 163 | 2.0 | 6.0 | 0.00 | 0.00 | 0.00 | 44 | 1014.9 |
| 20260831055518 | 78 | 156 | 2.0 | 4.0 | 0.00 | 0.00 | 0.00 | 43 | 1015.0 |
| 20260831054529 | 78 | 155 | 1.0 | 4.0 | 0.00 | 0.00 | 0.00 | 43 | 1014.9 |
| 20260831053525 | 79 | 156 | 2.0 | 6.0 | 0.00 | 0.00 | 0.00 | 43 | 1014.9 |
| 20260831052521 | 79 | 158 | 2.0 | 6.0 | 0.00 | 0.00 | 0.00 | 43 | 1014.8 |
| 20260831051516 | 79 | 157 | 1.0 | 3.0 | 0.00 | 0.00 | 0.00 | 44 | 1014.7 |
| 20260831050527 | 79 | 157 | 1.0 | 3.0 | 0.00 | 0.00 | 0.00 | 44 | 1014.7 |
| 20260831045520 | 80 | 141 | 2.0 | 3.0 | 0.00 | 0.00 | 0.00 | 42 | 1014.7 |
| 20260831044528 | 80 | 144 | 1.0 | 2.0 | 0.00 | 0.00 | 0.00 | 42 | 1014.5 |
| 20260831043526 | 80 | 144 | 1.0 | 2.0 | 0.00 | 0.00 | 0.00 | 42 | 1014.5 |
| 20260831042518 | 80 | 0.0 | 0.0 | 0.00 | 0.00 | 0.00 | 42 | 1014.4 | |
| 20260831041609 | 81 | 144 | 0.0 | 1.0 | 0.00 | 0.00 | 0.00 | 41 | 1014.5 |
| 20260831040525 | 81 | 0.0 | 0.0 | 0.00 | 0.00 | 0.00 | 41 | 1014.6 | |
| 20260831035520 | 82 | 144 | 0.0 | 1.0 | 0.00 | 0.00 | 0.00 | 40 | 1014.4 |
| 20260831034516 | 82 | 0.0 | 0.0 | 0.00 | 0.00 | 0.00 | 39 | 1014.3 | |
| 20260831033526 | 82 | 144 | 0.0 | 1.0 | 0.00 | 0.00 | 0.00 | 39 | 1014.2 |
| 20260831032521 | 83 | 144 | 1.0 | 2.0 | 0.00 | 0.00 | 0.00 | 38 | 1014.2 |
| 20260831031517 | 83 | 144 | 1.0 | 3.0 | 0.00 | 0.00 | 0.00 | 37 | 1014.1 |
| 20260831030527 | 84 | 143 | 1.0 | 3.0 | 0.00 | 0.00 | 0.00 | 37 | 1014.1 |
| 20260831025543 | 84 | 139 | 1.0 | 3.0 | 0.00 | 0.00 | 0.00 | 36 | 1014.1 |
| 20260831024518 | 85 | 126 | 1.0 | 2.0 | 0.00 | 0.00 | 0.00 | 36 | 1013.8 |
| 20260831023529 | 85 | 119 | 1.0 | 3.0 | 0.00 | 0.00 | 0.00 | 35 | 1013.7 |
| 20260831022525 | 86 | 110 | 2.0 | 3.0 | 0.00 | 0.00 | 0.00 | 35 | 1013.6 |
| 20260831021521 | 86 | 120 | 2.0 | 6.0 | 0.00 | 0.00 | 0.00 | 34 | 1013.5 |
| 20260831020516 | 86 | 132 | 2.0 | 7.0 | 0.00 | 0.00 | 0.00 | 34 | 1013.3 |
| 20260831015547 | 87 | 124 | 1.0 | 4.0 | 0.00 | 0.00 | 0.00 | 33 | 1013.1 |
| 20260831014523 | 87 | 156 | 2.0 | 6.0 | 0.00 | 0.00 | 0.00 | 33 | 1013.0 |
| 20260831013519 | 87 | 153 | 2.0 | 6.0 | 0.00 | 0.00 | 0.00 | 33 | 1012.8 |
| 20260831012529 | 88 | 141 | 2.0 | 7.0 | 0.00 | 0.00 | 0.00 | 32 | 1012.8 |
| 20260831011525 | 88 | 156 | 2.0 | 4.0 | 0.00 | 0.00 | 0.00 | 32 | 1012.7 |
| 20260831010520 | 89 | 150 | 2.0 | 4.0 | 0.00 | 0.00 | 0.00 | 31 | 1012.7 |
| 20260831005517 | 89 | 151 | 2.0 | 6.0 | 0.00 | 0.00 | 0.00 | 30 | 1012.6 |
| 20260831004030 | 90 | 157 | 2.0 | 9.0 | 0.00 | 0.00 | 0.00 | 29 | 1012.5 |
| 20260831003025 | 91 | 175 | 2.0 | 6.0 | 0.00 | 0.00 | 0.00 | 28 | 1012.5 |
| 20260831002021 | 92 | 156 | 2.0 | 6.0 | 0.00 | 0.00 | 0.00 | 27 | 1012.5 |
| 20260831001037 | 92 | 172 | 4.0 | 8.0 | 0.00 | 0.00 | 0.00 | 26 | 1012.7 |
| 20260831000027 | 93 | 144 | 2.0 | 8.0 | 0.00 | 0.00 | 0.00 | 25 | 1012.8 |
| 20260830235023 | 94 | 153 | 4.0 | 11.0 | 0.00 | 0.00 | 0.00 | 25 | 1012.7 |
| 20260830234018 | 94 | 152 | 3.0 | 8.0 | 0.00 | 0.00 | 0.00 | 25 | 1012.7 |
| 20260830233029 | 95 | 110 | 6.0 | 9.0 | 0.00 | 0.00 | 0.00 | 24 | 1012.8 |
| 20260830232030 | 96 | 133 | 4.0 | 10.0 | 0.00 | 0.00 | 0.00 | 23 | 1012.7 |
| 20260830231024 | 97 | 108 | 5.0 | 10.0 | 0.00 | 0.00 | 0.00 | 22 | 1012.8 |
| 20260830230019 | 97 | 153 | 3.0 | 11.0 | 0.00 | 0.00 | 0.00 | 23 | 1012.8 |
| 20260830225110 | 98 | 164 | 4.0 | 10.0 | 0.00 | 0.00 | 0.00 | 22 | 1012.8 |
| 20260830224024 | 98 | 130 | 5.0 | 9.0 | 0.00 | 0.00 | 0.00 | 22 | 1012.9 |
| 20260830223020 | 98 | 137 | 3.0 | 7.0 | 0.00 | 0.00 | 0.00 | 22 | 1012.9 |
| 20260830222029 | 98 | 156 | 5.0 | 10.0 | 0.00 | 0.00 | 0.00 | 22 | 1013.0 |
| 20260830221024 | 98 | 165 | 4.0 | 9.0 | 0.00 | 0.00 | 0.00 | 21 | 1013.1 |
| 20260830220059 | 98 | 145 | 3.0 | 10.0 | 0.00 | 0.00 | 0.00 | 21 | 1013.0 |
| 20260830215029 | 97 | 163 | 4.0 | 8.0 | 0.00 | 0.00 | 0.00 | 22 | 1012.9 |
| 20260830214044 | 98 | 157 | 5.0 | 10.0 | 0.00 | 0.00 | 0.00 | 21 | 1013.1 |
| 20260830213018 | 98 | 147 | 5.0 | 14.0 | 0.00 | 0.00 | 0.00 | 21 | 1013.2 |
| 20260830212028 | 98 | 153 | 4.0 | 13.0 | 0.00 | 0.00 | 0.00 | 21 | 1013.3 |
| 20260830211023 | 99 | 156 | 5.0 | 10.0 | 0.00 | 0.00 | 0.00 | 21 | 1013.5 |
| 20260830210019 | 100 | 154 | 4.0 | 15.0 | 0.00 | 0.00 | 0.00 | 21 | 1013.7 |
| 20260830205028 | 99 | 125 | 4.0 | 9.0 | 0.00 | 0.00 | 0.00 | 21 | 1013.8 |
| 20260830204024 | 99 | 152 | 4.0 | 11.0 | 0.00 | 0.00 | 0.00 | 21 | 1013.8 |
| 20260830203019 | 99 | 144 | 4.0 | 13.0 | 0.00 | 0.00 | 0.00 | 21 | 1014.0 |
| 20260830202029 | 97 | 125 | 4.0 | 10.0 | 0.00 | 0.00 | 0.00 | 22 | 1014.1 |
| 20260830201024 | 99 | 144 | 4.0 | 11.0 | 0.00 | 0.00 | 0.00 | 22 | 1014.3 |
| 20260830200018 | 99 | 145 | 5.0 | 16.0 | 0.00 | 0.00 | 0.00 | 22 | 1014.4 |
| 20260830195029 | 100 | 181 | 4.0 | 10.0 | 0.00 | 0.00 | 0.00 | 22 | 1014.6 |
| 20260830194023 | 99 | 124 | 4.0 | 8.0 | 0.00 | 0.00 | 0.00 | 22 | 1014.5 |
| 20260830193018 | 99 | 122 | 6.0 | 11.0 | 0.00 | 0.00 | 0.00 | 22 | 1014.8 |
| 20260830192028 | 99 | 153 | 4.0 | 10.0 | 0.00 | 0.00 | 0.00 | 23 | 1014.9 |
| 20260830191023 | 99 | 150 | 4.0 | 13.0 | 0.00 | 0.00 | 0.00 | 23 | 1015.1 |
| 20260830190019 | 98 | 149 | 5.0 | 13.0 | 0.00 | 0.00 | 0.00 | 24 | 1015.2 |
| 20260830185028 | 99 | 163 | 5.0 | 9.0 | 0.00 | 0.00 | 0.00 | 24 | 1015.3 |
| 20260830184027 | 98 | 163 | 4.0 | 9.0 | 0.00 | 0.00 | 0.00 | 25 | 1015.4 |
| 20260830183022 | 98 | 163 | 4.0 | 11.0 | 0.00 | 0.00 | 0.00 | 24 | 1015.7 |
| 20260830182017 | 98 | 152 | 4.0 | 14.0 | 0.00 | 0.00 | 0.00 | 25 | 1015.8 |
| 20260830181047 | 97 | 132 | 3.0 | 8.0 | 0.00 | 0.00 | 0.00 | 26 | 1015.9 |
| 20260830180021 | 97 | 148 | 4.0 | 10.0 | 0.00 | 0.00 | 0.00 | 25 | 1016.1 |
| 20260830175017 | 97 | 139 | 6.0 | 14.0 | 0.00 | 0.00 | 0.00 | 25 | 1016.2 |
| 20260830174027 | 96 | 162 | 5.0 | 13.0 | 0.00 | 0.00 | 0.00 | 26 | 1016.5 |
| 20260830173022 | 96 | 165 | 6.0 | 16.0 | 0.00 | 0.00 | 0.00 | 26 | 1016.6 |
| 20260830172057 | 95 | 153 | 3.0 | 8.0 | 0.00 | 0.00 | 0.00 | 27 | 1016.7 |
| 20260830171027 | 95 | 168 | 3.0 | 11.0 | 0.00 | 0.00 | 0.00 | 28 | 1016.8 |
| 20260830170022 | 94 | 166 | 3.0 | 9.0 | 0.00 | 0.00 | 0.00 | 29 | 1017.0 |
| 20260830165017 | 94 | 164 | 3.0 | 8.0 | 0.00 | 0.00 | 0.00 | 29 | 1017.0 |
| 20260830164027 | 93 | 145 | 3.0 | 13.0 | 0.00 | 0.00 | 0.00 | 30 | 1017.1 |
| 20260830163022 | 93 | 157 | 5.0 | 11.0 | 0.00 | 0.00 | 0.00 | 31 | 1017.2 |
| 20260830162017 | 92 | 154 | 2.0 | 4.0 | 0.00 | 0.00 | 0.00 | 33 | 1017.3 |
| 20260830161027 | 91 | 160 | 4.0 | 9.0 | 0.00 | 0.00 | 0.00 | 35 | 1017.2 |
| 20260830160022 | 91 | 183 | 4.0 | 8.0 | 0.00 | 0.00 | 0.00 | 35 | 1017.3 |
| 20260830155042 | 90 | 169 | 3.0 | 8.0 | 0.00 | 0.00 | 0.00 | 38 | 1017.2 |
| 20260830154138 | 89 | 217 | 1.0 | 6.0 | 0.00 | 0.00 | 0.00 | 39 | 1017.3 |
| 20260830153048 | 88 | 204 | 2.0 | 8.0 | 0.00 | 0.00 | 0.00 | 40 | 1017.3 |
| 20260830152023 | 87 | 158 | 3.0 | 8.0 | 0.00 | 0.00 | 0.00 | 41 | 1017.3 |
| 20260830151038 | 87 | 174 | 2.0 | 7.0 | 0.00 | 0.00 | 0.00 | 42 | 1017.2 |
| 20260830150048 | 85 | 165 | 3.0 | 8.0 | 0.00 | 0.00 | 0.00 | 44 | 1017.3 |
| 20260830145023 | 84 | 140 | 1.0 | 3.0 | 0.00 | 0.00 | 0.00 | 47 | 1017.2 |
| 20260830144018 | 83 | 173 | 3.0 | 8.0 | 0.00 | 0.00 | 0.00 | 49 | 1017.3 |
| 20260830143027 | 82 | 163 | 2.0 | 4.0 | 0.00 | 0.00 | 0.00 | 51 | 1017.2 |
| 20260830142023 | 81 | 168 | 1.0 | 4.0 | 0.00 | 0.00 | 0.00 | 54 | 1017.3 |
| 20260830141018 | 79 | 160 | 2.0 | 4.0 | 0.00 | 0.00 | 0.00 | 56 | 1017.2 |
| 20260830140027 | 78 | 168 | 2.0 | 8.0 | 0.00 | 0.00 | 0.00 | 59 | 1017.3 |
| 20260830135022 | 77 | 160 | 2.0 | 6.0 | 0.00 | 0.00 | 0.00 | 61 | 1017.2 |
| 20260830134018 | 75 | 145 | 2.0 | 7.0 | 0.00 | 0.00 | 0.00 | 63 | 1017.2 |
| 20260830133027 | 74 | 162 | 2.0 | 7.0 | 0.00 | 0.00 | 0.00 | 65 | 1017.2 |
| 20260830132022 | 73 | 160 | 2.0 | 6.0 | 0.00 | 0.00 | 0.00 | 65 | 1017.0 |
| 20260830131017 | 73 | 142 | 2.0 | 4.0 | 0.00 | 0.00 | 0.00 | 65 | 1016.9 |
| 20260830130027 | 73 | 155 | 1.0 | 3.0 | 0.00 | 0.00 | 0.00 | 65 | 1016.8 |
| 20260830125022 | 72 | 157 | 1.0 | 3.0 | 0.00 | 0.00 | 0.00 | 64 | 1016.6 |
| 20260830124017 | 72 | 157 | 0.0 | 2.0 | 0.00 | 0.00 | 0.00 | 64 | 1016.6 |
| 20260830123027 | 72 | 166 | 0.0 | 1.0 | 0.00 | 0.00 | 0.00 | 64 | 1016.4 |